{"data":{"norad_id":63314,"intl_designator":"2025-057H","name":"STARLINK-11640 [DTC]","alt_names":[],"object_type":"PAYLOAD","status":"ACTIVE","operator":null,"country":"US","launch_date":"2025-03-18","launch_site_code":"AFETR","launch_vehicle":null,"mission":null,"orbit_class":"UNKNOWN","rcs_meters":null,"size_class":null,"mass_kg":null,"dimensions":null,"purposes":["comms"],"wikipedia_slug":null,"has_3d_model":false,"image_url":null,"decayed_at":null,"tle_current":{"epoch":"2026-09-20T14:51:23.442912Z","epoch_age_seconds":148613,"freshness":"FRESH","line1":"1 63314U 25057H   26263.61902133  .00158264  00000+0  12102-2 0  9993","line2":"2 63314  42.9977 169.6782 0000493 256.5700 103.5113 15.70906196 87831","mean_motion":15.70906196,"eccentricity":4.93e-5,"inclination_deg":42.9977,"raan_deg":169.6782,"arg_perigee_deg":256.57,"mean_anomaly_deg":103.5113,"bstar":0.0012102,"rev_number":8783,"period_min":91.666835592518,"perigee_km":355.97385962232,"apogee_km":356.63787568907,"semimajor_km":6734.4428676557,"source":"CELESTRAK","updated_at":"2026-09-21T09:00:34.968360Z"}}}